CAPE
502 1048 1225 1299 1784 1080 99 181 130 99 240 279 342 301 416 460 747 720 437 403 158 40 380 914 803 842 807 887 1391 1059 550 430 1350 829 1310 1663 1370 1786 1707 1773 1878 1929 1758 1813 1907 2093 2156 2203 2125
868 661 908 1351 608 158 204 185 120 221 129 360 635 512 361 493 475 521 537 479 266 92 126 303 1274 935 605 605 504 586 284 830 1482 1481 1339 1651 1662 1755 1719 1700 1870 1891 1859 1966 2000 2057 2110 2205 2277
340 139 776 895 152 164 229 153 206 205 141 340 508 520 436 410 395 458 643 459 388 218 231 248 861 852 771 636 588 682 635 1169 1431 1490 1444 1515 1669 1850 1782 1579 1698 1810 2060 2127 2007 1927 1902 1949 1747
627 1144 961 641 301 268 179 203 122 143 225 310 434 383 310 266 431 518 371 507 518 159 44 478 603 613 628 636 667 265 993 1248 1289 1608 1619 1579 1727 1659 1846 1886 1676 2137 2211 2162 2169 2134 2090 2016 1732
813 1156 883 565 376 158 135 151 91 68 220 241 301 383 441 202 340 520 571 474 130 70 96 234 603 483 227 151 659 934 737 925 1158 1348 1497 1681 1751 1800 1895 1770 1989 1732 1742 2031 2228 2134 2082 2079 2217
1251 634 547 503 379 272 328 188 63 93 142 126 316 389 393 88 115 120 103 314 110 26 32 26 208 394 821 109 497 824 605 758 892 1120 1357 1533 1758 1873 2064 1942 1895 1759 1755 2020 2007 2329 2394 2417 2184
571 769 544 63 405 513 430 447 116 82 83 143 154 279 257 8 8 7 66 249 154 22 15 30 48 348 258 242 434 801 797 760 793 683 936 1017 1200 1575 1869 1911 1937 1872 1886 2021 1821 2161 2614 2425 2307
428 538 23 396 384 485 435 476 491 87 156 31 197 258 253 91 0 5 43 355 235 135 71 32 60 174 981 478 434 404 196 256 249 350 881 1684 2043 2083 2050 2356 2236 1876 2015 1909 1530 1501 1746 2039 2489
457 606 367 130 89 250 407 400 436 66 45 171 178 124 195 50 20 92 48 163 535 271 179 55 742 447 727 479 238 126 146 269 576 681 1343 2254 1521 1020 1397 1916 1856 1824 1831 1491 1190 1138 1518 1688 2154
455 948 415 328 144 168 313 421 265 95 125 205 253 215 151 46 44 90 90 68 180 224 321 937 577 1065 283 67 371 414 655 1442 1119 1384 1554 1495 1491 1200 756 1165 1292 1271 1159 1008 902 1085 1452 1651 1250
476 694 440 188 185 122 254 560 533 43 85 205 223 182 136 110 143 80 80 102 87 150 256 511 953 137 531 1371 282 243 1177 1007 1414 1548 2405 1389 567 307 393 746 894 887 1277 828 1108 1189 1580 957 768
598 813 515 240 96 249 277 648 400 163 142 161 208 194 157 198 145 82 69 83 119 157 339 1139 607 571 427 1371 364 669 1355 1225 1409 1326 573 1279 532 429 413 682 675 688 1000 702 766 708 1175 1304 1515
719 617 562 380 268 183 326 573 523 370 160 143 206 202 245 248 170 109 84 68 59 105 513 722 565 800 434 962 1346 764 1118 614 344 463 544 737 541 603 661 1026 1012 608 548 974 981 778 1210 981 1071
636 764 624 494 343 150 149 215 624 465 203 127 208 177 231 258 232 149 113 73 65 160 458 498 461 878 570 917 721 853 1057 401 344 354 863 1220 894 2626 933 1081 740 578 725 721 873 1445 934 693 492
727 791 604 601 584 79 100 54 288 635 259 112 156 192 191 156 218 223 148 103 101 288 411 449 395 462 584 593 738 739 571 619 470 834 1590 1631 2090 2575 1969 1060 1999 807 1651 1441 1127 1425 719 407 434
667 647 239 756 539 337 177 99 162 727 502 131 95 151 174 196 179 299 329 178 143 392 642 535 329 661 533 678 1018 632 1103 354 430 533 1462 1717 2300 1956 1588 1712 1965 1095 1497 828 730 968 432 429 411
671 343 452 712 774 523 235 118 184 393 441 392 127 181 171 295 285 329 336 323 193 353 819 712 424 736 559 1161 1116 1314 840 641 350 734 1503 1755 1940 2057 1886 2580 1729 2219 759 1022 1079 609 897 450 398
7 441 298 651 786 637 488 299 259 208 250 503 364 128 204 266 359 361 390 361 470 350 820 966 523 1061 909 1206 1963 1724 566 774 578 578 1530 1796 1770 1965 2253 1578 1986 2331 649 804 2242 2281 823 1156 407
308 84 60 331 773 558 409 338 585 446 376 607 673 142 190 313 311 415 396 408 575 459 771 1106 894 1633 1084 1116 1293 1967 1654 1462 616 733 1976 1792 1725 2063 1888 1477 1657 1649 2011 2543 1453 1849 1598 442 531
59 155 24 69 646 760 515 566 657 516 529 294 351 400 203 297 270 496 496 660 651 848 992 1234 1409 1874 1469 1174 1638 1428 1497 865 1323 1385 1975 1881 1855 1978 1745 2230 1531 1982 1564 1773 2137 2554 2214 957 982
79 78 26 10 145 539 445 703 734 1173 641 524 609 745 603 367 329 568 763 769 891 1443 1330 1513 1760 1889 1845 1898 1309 1492 1339 1966 997 1262 1570 1882 1893 1848 2042 2240 2171 2264 1949 1822 2288 2306 3100 1860 1029
49 15 24 0 61 258 138 170 492 902 1052 1040 730 572 688 438 496 525 574 636 783 1279 1392 1765 1827 2037 1866 2237 2347 2825 1514 1064 852 1694 1403 2040 1982 1698 1845 2014 2083 2235 2022 2973 1866 1957 2674 3025 2043
19 10 9 0 9 221 73 213 64 776 1149 1104 947 961 824 783 561 291 536 900 791 1080 1483 1590 2218 2739 2394 2599 2874 1953 2164 1344 2164 732 2948 2462 3095 1998 1744 2005 2365 2617 2225 1737 2534 2439 2696 2238 1855
0 8 20 11 37 251 179 137 440 316 500 870 1081 853 855 680 576 939 362 125 800 1045 1158 1446 2218 2766 2526 2216 2083 2703 2813 2476 2472 1826 1744 1443 1596 2076 2170 1985 2347 2598 2376 1630 1829 2503 2742 2863 3255
0 6 105 65 82 202 240 206 213 90 50 303 598 929 1034 1017 1081 1065 999 665 743 1218 1182 1286 1981 2351 2233 1909 2144 2091 2128 2376 2131 1363 1592 1665 1016 1182 3235 2791 2488 2299 2689 2104 1644 2216 2654 2696 2325
0 10 96 273 113 170 187 104 156 42 30 142 527 936 1274 1336 1206 1133 1071 943 837 960 1249 1239 1831 2319 2213 1882 2624 2699 2545 1741 1819 2018 2242 1323 974 1033 3254 2608 2002 1981 2536 2651 2203 1705 1388 2603 2073
0 0 13 77 177 228 111 43 167 71 16 229 515 726 750 958 1239 1428 1124 1109 1132 983 1472 1731 1913 2171 2183 1925 2075 2368 2700 2288 1739 2671 2248 1479 2479 1610 1927 1600 1959 1705 2854 1706 2160 1923 1845 1854 2425
27 22 21 82 214 233 146 71 113 57 15 63 293 371 341 453 926 1254 1409 1206 1145 1086 1357 1618 1894 2148 2187 1967 1850 1664 1636 1856 2310 2834 2379 2647 2802 2561 2057 2201 1837 1961 2175 1950 2123 2024 2803 2456 1818
0 0 12 10 59 90 131 154 35 55 145 102 233 199 331 484 650 755 1322 1330 1416 1224 1457 1450 1826 2200 2189 2001 2280 2063 1811 1568 1842 1920 1939 2202 2134 2010 1831 2146 2068 2475 2708 2388 2972 2491 2443 1102 2466
41 18 11 32 12 37 27 117 42 41 50 94 447 316 425 378 539 760 924 1148 1586 1578 1775 1843 1597 1660 1971 2594 2737 2460 2185 1992 1500 1730 1827 2638 3313 2174 2307 1908 1933 1819 1960 1885 1910 1758 1203 1608 1600
CIN
-169 -73 -17 -8 -0 -13 -26 -0 -0 -0 -0 -0 -0 -0 -0 -8 -0 -0 -2 -6 -10 -49 -4 -0 -4 -0 -5 -3 -0 -3 -9 -12 -3 -8 -1 -0 -0 -0 -0 -0 -0 -0 -0 -0 -0 -0 -0 -0 -0
-25 -32 -41 -1 -11 -34 -2 -0 -1 -0 -0 -1 -0 -3 -0 -0 -1 -1 -0 -1 -0 -20 -33 -1 -0 -2 -11 -9 -10 -6 -31 -3 -3 -1 -0 -0 -0 -0 -0 -0 -0 -0 -0 -0 -0 -0 -0 -0 -0
-125 -101 -8 -0 -151 -14 -2 -4 -0 -0 -0 -1 -0 -1 -0 -0 -2 -0 -0 -0 -1 -7 -6 -18 -2 -3 -3 -6 -10 -4 -7 -0 -0 -0 -0 -0 -0 -0 -0 -0 -0 -0 -0 -0 -0 -0 -0 -0 -0
-31 -2 -11 -163 -0 -1 -12 -0 -0 -0 -0 -0 -2 -1 -0 -11 -0 -0 -5 -0 -0 -8 -5 -8 -0 -1 -3 -4 -7 -13 -4 -2 -0 -0 -1 -0 -0 -0 -0 -0 -1 -0 -0 -0 -0 -0 -0 -0 -0
-26 -0 -14 -1 -0 -15 -1 -0 -1 -0 -0 -0 -8 -0 -0 -12 -0 -0 -11 -0 -3 -7 -5 -3 -3 -4 -7 -25 -8 -2 -8 -7 -0 -2 -1 -1 -0 -0 -0 -0 -0 -2 -0 -0 -0 -0 -0 -0 -0
-0 -0 -5 -2 -0 -0 -0 -0 -0 -1 -0 -0 -0 -0 -0 -25 -10 -7 -0 -0 -15 -3 -1 -0 -7 -6 -2 -4 -5 -0 -1 -10 -2 -3 -3 -4 -1 -0 -0 -0 -1 -0 -0 -0 -0 -0 -0 -0 -0
-1 -7 -6 -67 -7 -0 -0 -0 -8 -0 -0 -0 -1 -0 -0 -0 -16 -0 -2 -0 -0 -23 -36 -11 -10 -8 -6 -9 -8 -0 -0 -0 -3 -2 -0 -9 -6 -2 -1 -0 -1 -0 -0 -0 -3 -2 -0 -1 -1
-9 -0 -56 -0 -2 -9 -0 -0 -4 -1 -0 -0 -1 -0 -0 -9 -0 -0 -5 -1 -5 -0 -6 -60 -17 -16 -10 -10 -2 -6 -19 -38 -5 -14 -5 -0 -0 -1 -0 -1 -0 -0 -0 -0 -15 -23 -24 -25 -16
-16 -10 -12 -61 -47 -21 -0 -0 -0 -9 -4 -3 -0 -1 -0 -22 -7 -12 -9 -0 -0 -6 -6 -16 -4 -47 -25 -33 -18 -26 -27 -3 -9 -2 -1 -8 -2 -1 -5 -6 -1 -1 -6 -17 -38 -50 -56 -69 -59
-0 -4 -2 -0 -42 -50 -12 -2 -0 -0 -0 -0 -0 -1 -6 -17 -9 -6 -1 -1 -0 -3 -7 -9 -19 -0 -18 -125 -20 -27 -26 -2 -7 -7 -13 -6 -3 -1 -0 -8 -28 -24 -32 -44 -65 -77 -84 -91 -15
-0 -0 -0 -2 -1 -18 -32 -0 -1 -0 -1 -0 -0 -0 -14 -5 -0 -0 -0 -0 -0 -0 -2 -1 -8 -44 -26 -0 -24 -35 -0 -12 -18 -23 -17 -1 -6 -1 -0 -16 -13 -8 -46 -9 -40 -41 -16 -1 -0
-1 -2 -0 -6 -28 -1 -12 -6 -0 -14 -58 -1 -1 -0 -0 -2 -0 -0 -0 -0 -0 -0 -0 -6 -5 -0 -42 -30 -202 -33 -5 -23 -6 -2 -14 -1 -0 -1 -1 -1 -0 -0 -2 -1 -0 -1 -0 -0 -5
-0 -0 -0 -1 -19 -38 -7 -1 -0 -0 -4 -0 -0 -0 -0 -0 -1 -0 -0 -0 -2 -0 -0 -1 -0 -0 -0 -2 -11 -56 -6 -5 -0 -0 -0 -0 -1 -0 -1 -2 -0 -1 -0 -0 -1 -1 -0 -10 -1
-0 -0 -0 -0 -1 -27 -51 -58 -7 -0 -2 -0 -0 -0 -0 -1 -0 -0 -0 -0 -9 -0 -0 -0 -0 -0 -0 -0 -1 -0 -18 -3 -1 -1 -0 -0 -0 -4 -0 -0 -0 -0 -1 -1 -0 -0 -1 -0 -9
-3 -0 -0 -0 -0 -14 -77 -84 -15 -11 -1 -0 -2 -0 -0 -1 -1 -0 -0 -0 -0 -0 -0 -0 -0 -0 -0 -0 -0 -0 -0 -0 -2 -0 -0 -1 -0 -1 -1 -2 -4 -2 -6 -4 -0 -4 -7 -0 -10
-2 -10 -10 -0 -0 -14 -22 -8 -36 -5 -2 -1 -0 -4 -1 -1 -0 -0 -0 -0 -0 -0 -0 -1 -0 -0 -0 -0 -0 -0 -4 -1 -0 -0 -0 -1 -0 -1 -1 -1 -9 -0 -0 -0 -0 -1 -1 -1 -1
-1 -14 -3 -0 -0 -9 -17 -11 -5 -45 -26 -7 -6 -0 -4 -11 -0 -0 -1 -0 -0 -0 -0 -0 -0 -0 -0 -0 -0 -1 -3 -1 -0 -0 -2 -0 -0 -3 -2 -6 -5 -4 -1 -0 -1 -1 -4 -0 -0
-40 -2 -0 -7 -0 -0 -2 -10 -36 -47 -19 -30 -28 -3 -0 -0 -9 -1 -0 -0 -0 -0 -0 -0 -0 -0 -0 -0 -3 -5 -4 -1 -0 -0 -1 -1 -0 -0 -3 -1 -0 -3 -0 -0 -8 -8 -2 -2 -1
-0 -14 -1 -0 -0 -0 -0 -7 -11 -28 -31 -3 -2 -1 -0 -3 -3 -2 -1 -10 -0 -17 -2 -0 -0 -0 -0 -0 -0 -6 -0 -0 -0 -1 -4 -0 -0 -0 -5 -0 -1 -1 -6 -6 -6 -0 -6 -1 -2
-2 -4 -4 -5 -0 -0 -0 -0 -16 -32 -43 -57 -39 -16 -4 -0 -19 -2 -3 -3 -1 -7 -0 -0 -0 -0 -0 -0 -0 -26 -0 -0 -0 -0 -0 -0 -0 -0 -1 -3 -3 -5 -0 -3 -0 -3 -4 -0 -1
-0 -1 -0 -0 -0 -1 -0 -0 -0 -13 -29 -29 -0 -2 -1 -9 -18 -0 -1 -1 -2 -5 -0 -0 -0 -0 -0 -0 -0 -0 -1 -3 -0 -0 -0 -0 -0 -0 -0 -0 -4 -6 -11 -1 -2 -3 -3 -44 -1
-0 -0 -0 -0 -1 -60 -20 -22 -9 -0 -0 -2 -9 -7 -0 -9 -5 -19 -1 -1 -1 -1 -0 -0 -0 -0 -0 -0 -0 -0 -0 -0 -0 -1 -0 -1 -0 -0 -0 -0 -3 -9 -1 -4 -0 -1 -6 -7 -1
-1 -19 -1 -0 -0 -30 -141 -44 -116 -7 -0 -0 -0 -0 -0 -4 -0 -20 -23 -1 -2 -3 -3 -0 -0 -0 -0 -0 -1 -0 -0 -0 -9 -0 -0 -0 -0 -0 -1 -0 -0 -0 -0 -3 -6 -0 -4 -1 -4
-0 -0 -0 -0 -0 -0 -0 -0 -0 -0 -0 -0 -0 -0 -0 -11 -23 -9 -20 -51 -6 -6 -0 -1 -0 -0 -0 -0 -1 -0 -0 -0 -5 -2 -4 -0 -0 -0 -0 -0 -0 -0 -0 -8 -3 -0 -0 -2 -4
-0 -0 -0 -2 -0 -0 -18 -6 -0 -51 -1 -0 -0 -0 -0 -0 -4 -1 -0 -14 -9 -0 -0 -0 -0 -0 -0 -0 -0 -0 -0 -0 -0 -65 -0 -0 -0 -0 -6 -7 -0 -0 -0 -0 -0 -0 -1 -0 -0
-0 -0 -0 -4 -9 -0 -0 -0 -1 -19 -0 -8 -3 -3 -17 -12 -0 -0 -0 -0 -1 -0 -1 -0 -1 -0 -0 -0 -0 -0 -0 -0 -0 -0 -6 -0 -0 -0 -19 -0 -0 -0 -0 -0 -0 -0 -2 -0 -0
-0 -0 -0 -0 -1 -0 -17 -1 -3 -8 -15 -1 -2 -17 -16 -20 -10 -0 -0 -0 -3 -0 -1 -0 -0 -0 -0 -0 -0 -0 -0 -0 -0 -2 -2 -22 -9 -8 -8 -65 -0 -0 -2 -0 -0 -0 -0 -0 -0
-0 -0 -0 -5 -8 -5 -0 -0 -10 -11 -0 -31 -0 -6 -23 -45 -46 -10 -0 -0 -1 -1 -0 -0 -0 -0 -0 -0 -0 -0 -0 -0 -0 -6 -16 -4 -22 -8 -5 -3 -0 -0 -2 -0 -0 -0 -0 -0 -0
-0 -0 -0 -3 -0 -3 -1 -0 -1 -10 -30 -34 -1 -7 -15 -24 -36 -36 -2 -0 -0 -0 -2 -0 -1 -4 -0 -0 -0 -0 -0 -0 -0 -0 -0 -0 -4 -4 -0 -2 -0 -3 -1 -0 -0 -0 -3 -34 -0
-60 -0 -0 -0 -5 -0 -1 -2 -41 -68 -69 -44 -0 -29 -30 -41 -39 -34 -15 -11 -0 -0 -0 -0 -0 -0 -0 -0 -2 -0 -5 -0 -0 -0 -0 -0 -0 -0 -0 -0 -0 -0 -0 -0 -0 -0 -0 -0 -0
Wind_Speed
12 18 15 16 16 13 nan 11 11 nan 10 18 13 16 20 21 19 12 13 20 21 nan 10 11 11 13 15 14 12 12 17 16 14 13 7 7 6 5 4 2 5 6 6 6 5 4 5 3 3
16 10 14 18 10 12 8 10 6 13 10 13 15 15 16 21 18 16 13 12 16 nan 9 10 12 15 13 15 14 14 15 16 14 11 7 9 6 4 4 2 4 5 4 6 6 5 2 1 4
19 13 20 11 8 5 13 9 13 9 8 7 7 13 14 10 11 11 20 13 17 16 17 16 16 17 12 15 16 16 15 7 11 11 10 10 7 5 5 3 2 3 4 4 3 2 1 3 4
7 4 9 18 6 20 15 16 10 12 7 10 9 11 19 13 10 19 20 11 11 11 nan 14 14 14 13 15 15 14 17 18 16 13 11 10 10 7 5 2 1 2 1 2 1 3 7 7 8
7 9 10 6 12 15 10 8 nan nan 10 7 4 17 14 15 13 14 13 6 13 nan nan 10 12 14 15 19 17 13 16 20 19 14 14 13 9 9 7 5 3 2 1 2 7 7 10 12 11
9 7 9 6 9 11 9 5 nan nan 9 9 18 15 14 nan 9 7 12 17 14 nan nan nan 11 13 13 16 20 19 18 22 24 22 20 16 15 10 10 4 5 3 3 7 8 10 11 12 13
17 12 12 nan 10 12 10 4 9 nan nan 15 10 13 11 nan nan nan nan 14 12 nan nan nan nan 13 16 17 18 20 27 27 30 27 22 23 20 3 7 8 6 6 6 11 10 10 11 12 16
10 8 nan 22 9 18 17 15 7 nan 14 nan 14 4 13 nan nan nan nan 11 8 4 nan nan nan 10 13 17 23 26 21 27 32 20 6 3 8 8 8 11 10 9 12 12 12 12 13 14 15
9 3 15 4 nan 18 9 10 11 nan nan 8 4 16 15 nan nan nan nan 6 11 3 3 nan 8 9 11 16 17 19 14 10 10 13 16 13 11 12 13 14 11 12 14 15 14 16 17 13 15
10 2 9 11 19 16 9 8 11 nan 10 10 11 22 17 nan nan nan nan nan 7 9 7 12 2 8 13 nan 14 4 11 16 18 16 21 22 13 18 11 13 12 14 16 17 17 22 21 21 14
4 8 4 11 10 18 18 18 9 nan nan 13 11 17 15 10 9 nan nan 4 nan 3 7 7 10 10 18 10 10 10 15 9 11 17 23 18 16 12 12 14 14 15 20 17 19 18 20 14 12
4 8 6 11 nan 9 18 21 11 18 3 15 14 12 12 9 6 nan nan nan 8 7 7 10 1 9 5 10 9 22 12 9 6 12 14 17 17 14 14 14 11 15 17 16 18 12 11 12 15
8 9 12 17 17 17 11 13 17 11 13 11 15 12 11 8 7 7 nan nan nan 6 7 10 9 7 11 11 7 7 8 12 10 9 14 14 12 15 14 13 13 14 14 14 17 10 12 11 11
14 15 15 16 18 14 23 23 16 10 7 9 12 11 9 8 9 7 5 nan nan 0 5 15 9 8 6 14 8 2 5 3 5 4 11 16 8 13 8 9 9 12 17 14 11 15 12 13 5
13 14 17 16 15 nan 31 nan 16 19 6 9 13 10 6 7 10 7 6 4 4 5 5 11 9 9 8 8 5 6 1 2 2 3 4 9 8 17 12 12 14 14 22 18 13 17 15 7 6
7 17 7 13 17 20 7 nan 12 22 11 8 nan 11 8 8 10 8 7 6 8 6 9 8 4 12 10 8 6 8 8 5 2 1 3 8 15 13 16 13 14 19 17 17 14 17 12 10 8
9 5 13 16 11 18 11 11 6 6 8 3 11 12 11 5 9 9 9 9 10 8 6 6 7 11 10 11 8 11 15 8 5 4 5 6 9 14 20 15 17 23 19 19 18 11 18 7 12
nan 21 11 16 13 16 15 18 18 9 6 7 7 14 9 6 7 8 9 8 12 8 8 6 6 13 12 12 14 15 9 8 7 7 13 7 9 12 18 14 15 24 19 17 22 22 15 18 10
20 nan nan 21 19 11 9 18 21 17 10 13 5 8 11 7 7 7 4 9 13 11 6 8 6 11 11 12 10 14 11 10 8 10 17 12 10 10 13 11 10 18 22 25 18 12 9 8 9
nan 14 nan nan 14 4 12 15 22 17 12 3 8 3 3 9 11 12 8 8 10 11 8 7 6 9 7 14 17 20 16 12 10 12 12 10 9 9 10 16 15 17 19 16 17 19 14 9 9
nan nan nan nan 7 2 3 18 18 21 13 11 14 7 6 4 8 12 15 11 9 13 12 10 8 4 3 10 13 17 18 20 13 11 11 9 9 10 13 10 17 17 19 15 14 13 16 10 11
nan nan nan nan nan 18 27 20 16 18 13 17 18 15 10 9 10 9 8 16 11 12 12 12 7 4 1 7 8 11 13 14 13 14 12 13 9 10 10 11 13 15 22 25 16 13 17 18 12
nan nan nan nan nan 19 nan 21 nan 7 19 20 14 17 17 18 17 15 10 5 13 11 13 10 9 3 1 6 13 11 13 13 18 10 15 15 16 11 10 11 12 15 15 15 19 17 12 13 10
nan nan nan nan nan 6 12 7 21 20 10 14 26 11 14 23 12 21 17 5 5 13 14 13 12 8 6 5 6 8 8 14 16 14 16 13 12 13 12 12 12 15 18 16 14 12 11 12 15
nan nan 4 nan nan 6 24 10 31 nan nan 26 26 21 15 12 26 24 22 15 2 6 11 13 15 11 9 6 6 6 8 9 14 21 14 13 12 13 16 10 12 13 12 16 16 14 16 12 11
nan nan nan 11 16 22 16 10 25 nan nan 35 27 28 25 19 18 20 24 20 17 4 14 11 17 12 10 7 7 9 9 13 12 15 19 14 16 15 23 17 15 11 14 12 13 12 10 9 10
nan nan nan nan 7 4 16 nan 22 nan nan 30 29 27 24 22 19 17 20 22 14 8 11 11 17 14 12 10 8 10 10 10 12 14 13 17 17 20 21 29 17 17 16 15 14 10 11 12 10
nan nan nan nan 7 6 13 nan 22 nan nan nan 25 20 22 19 17 15 17 15 11 10 13 15 16 15 14 11 12 10 10 12 13 17 19 14 22 19 23 20 17 17 17 17 15 12 9 11 11
nan nan nan nan nan nan 9 9 nan nan 30 21 16 21 21 19 18 17 16 12 11 14 17 13 14 16 14 15 15 12 11 10 10 11 14 13 14 11 18 21 23 23 18 16 15 16 16 21 11
nan nan nan nan nan nan nan 25 nan nan nan nan 22 18 18 17 16 18 19 15 11 12 12 12 11 16 16 18 22 17 16 11 11 9 9 13 11 11 14 17 16 15 15 17 19 16 17 16 15
Wind_Direction
62 63 86 82 75 47 nan 305 264 nan 260 236 203 215 225 200 206 224 270 264 276 nan 222 224 230 234 241 237 223 240 232 231 230 233 227 222 209 223 270 290 298 325 319 332 344 345 356 311 298
85 89 90 102 104 85 255 276 278 248 262 256 225 177 229 232 246 274 252 265 272 nan 267 267 240 241 244 240 228 248 248 209 221 233 227 215 215 225 256 288 312 309 337 346 342 335 319 344 329
104 100 98 82 68 294 268 276 262 283 290 270 246 194 202 241 213 252 281 286 248 222 237 253 249 252 252 247 243 250 262 224 227 234 219 224 209 206 215 240 307 335 8 353 290 259 94 7 3
119 119 107 170 190 238 276 272 290 307 272 260 297 260 247 199 261 258 264 280 282 272 nan 261 252 255 257 253 246 248 242 235 231 234 224 221 217 210 195 202 228 272 189 248 234 120 84 77 47
137 138 144 133 229 248 253 267 nan nan 275 288 265 281 253 244 256 292 290 314 270 nan nan 273 247 235 239 246 242 240 248 229 225 225 228 224 221 207 186 183 176 183 154 154 145 118 87 67 47
124 167 174 231 274 267 255 215 nan nan 259 285 278 278 270 nan 277 278 281 259 248 nan nan nan 253 226 231 238 234 239 242 227 224 226 223 218 218 214 221 174 170 144 142 149 134 107 83 55 47
72 209 163 nan 196 259 247 222 209 nan nan 282 294 281 297 nan nan nan nan 260 269 nan nan nan nan 233 244 245 248 237 237 228 229 225 234 236 232 164 144 144 122 134 144 133 114 102 82 68 58
63 36 nan 215 260 225 230 257 193 nan 246 nan 243 277 326 nan nan nan nan 273 254 275 nan nan nan 257 230 237 246 233 227 225 241 199 213 146 119 145 134 116 130 123 135 117 106 100 89 77 67
57 71 348 306 nan 231 197 266 238 nan nan 237 227 297 299 nan nan nan nan 287 283 278 360 nan 311 274 285 275 249 265 240 229 196 148 123 98 104 114 110 150 125 128 129 112 102 93 84 73 59
85 235 217 270 286 241 184 210 266 nan 269 262 260 272 288 nan nan nan nan nan 299 298 224 224 346 317 278 nan 331 168 142 150 147 134 94 96 123 146 153 131 116 124 117 102 95 84 78 74 58
263 215 264 297 307 243 210 225 180 nan nan 284 300 306 310 317 330 nan nan 334 nan 327 292 270 208 127 352 30 243 163 122 104 123 101 116 147 146 130 124 122 115 121 101 98 88 84 87 106 109
59 238 257 293 nan 306 239 195 189 205 79 263 292 312 311 326 343 nan nan nan 290 260 253 232 244 179 96 223 356 78 108 125 113 139 150 142 131 130 113 114 134 117 120 132 97 117 130 94 104
289 292 290 305 290 272 241 206 196 187 226 252 296 314 335 333 317 307 nan nan nan 281 284 299 258 201 171 161 291 43 88 120 188 145 146 126 146 154 142 132 128 138 127 131 125 119 111 97 79
268 298 308 320 314 300 230 205 171 174 236 278 309 317 338 322 328 289 293 nan nan 357 297 260 257 239 206 198 201 168 142 140 100 181 148 138 157 133 150 115 132 135 141 132 132 128 107 114 126
295 321 320 319 312 nan 226 nan 164 152 257 315 326 296 293 289 296 296 293 327 333 301 298 269 266 260 234 225 200 166 287 286 55 214 76 147 169 147 162 190 150 164 165 149 131 107 120 138 130
346 282 132 303 311 325 296 nan 211 158 221 301 nan 270 291 292 306 301 299 308 304 313 294 281 272 268 257 249 190 170 204 216 223 335 128 144 173 150 153 146 170 162 143 132 135 125 137 144 131
332 301 292 301 318 308 333 205 164 189 174 160 302 295 273 297 314 310 314 301 292 293 294 287 238 266 255 240 222 167 208 190 186 133 162 159 149 149 150 165 189 141 155 154 137 144 149 162 134
nan 172 273 296 301 336 348 316 342 341 90 255 144 297 296 329 346 325 334 305 294 301 307 290 245 242 231 227 193 190 198 181 188 166 201 184 169 172 144 187 178 149 159 150 170 172 181 157 158
292 nan nan 247 283 329 348 328 336 339 49 285 134 299 327 320 319 314 350 312 305 285 307 302 297 257 213 209 212 205 197 200 194 186 211 193 185 184 155 162 156 158 166 170 174 168 180 179 198
nan 223 nan nan 276 76 306 317 335 356 11 73 329 157 25 338 282 324 335 326 319 313 306 315 312 270 213 198 190 202 186 204 193 199 216 184 192 182 168 164 168 181 170 173 176 181 176 198 227
nan nan nan nan 250 81 286 336 317 332 360 6 354 77 312 312 292 345 330 320 315 309 318 308 316 303 226 200 197 205 192 190 198 203 208 207 195 179 167 176 163 176 166 177 188 187 188 207 268
nan nan nan nan nan 239 165 254 125 304 330 343 356 11 18 346 343 290 311 317 319 297 312 311 329 302 212 185 211 223 200 205 202 194 193 222 206 180 185 171 173 176 171 185 185 192 189 186 205
nan nan nan nan nan 307 nan 277 nan 35 330 331 346 347 343 341 358 348 1 316 312 294 299 303 321 287 265 202 167 229 191 208 198 189 229 199 226 183 188 188 180 178 168 195 181 200 204 195 184
nan nan nan nan nan 187 296 207 333 308 315 317 315 329 326 319 332 330 360 14 194 293 297 300 298 291 294 241 181 194 224 182 205 182 223 223 223 229 194 196 186 178 180 189 187 196 196 198 202
nan nan 48 nan nan 242 260 229 275 nan nan 274 271 275 276 292 321 323 337 347 299 293 293 290 299 295 298 293 255 202 191 208 184 202 199 212 214 220 244 215 201 183 187 188 196 208 192 210 207
nan nan nan 239 194 286 264 260 289 nan nan 265 267 264 268 274 291 312 314 317 310 248 303 295 296 296 289 285 254 238 223 216 206 226 197 204 209 217 242 229 204 211 198 217 201 196 206 219 232
nan nan nan nan 66 360 341 nan 309 nan nan 274 274 277 277 273 268 286 298 302 307 327 287 290 290 296 294 290 269 250 241 225 228 222 219 211 195 222 239 222 223 206 219 206 206 211 212 224 235
nan nan nan nan 186 214 194 nan 271 nan nan nan 279 284 275 270 267 264 288 300 308 312 282 286 281 287 293 291 281 267 251 249 226 231 238 210 218 208 226 231 231 220 220 217 220 193 230 241 230
nan nan nan nan nan nan 264 292 nan nan 285 302 289 272 273 265 265 264 270 282 290 295 284 298 314 274 285 287 272 267 272 272 263 238 231 226 206 234 238 226 218 216 215 232 236 217 202 241 241
nan nan nan nan nan nan nan 255 nan nan nan nan 279 277 272 260 255 256 272 275 252 271 267 281 294 319 281 270 264 256 251 264 288 266 233 224 225 219 220 245 235 229 224 227 225 222 215 239 242